Location: Bu�n Treun
(12.1333°N, 108.3167°E)
Time: 12:59:56
(UTC+00:00)

ATLAS 5 CENTAUR R/B - Pass Details

Date: 13 July 2020
Orbit: 534 x 1124 km, 63.4° (Epoch: 03 August)

Event Time Altitude Azimuth Distance (km) Brightness Sun altitude
Rises 20:41:03 0° 346° (NNW) 3,625 5.7 -24.6°
Reaches altitude 10° 20:43:37 10° 352° (N) 2,755 5.1 -24.0°
Maximum altitude 20:49:59 48° 66° (ENE) 1,378 3.7 -22.7°
Drops below altitude 10° 20:56:51 10° 138° (SE) 2,985 5.2 -21.2°
Sets 20:59:43 0° 143° (SE) 3,952 5.8 -20.6°
